Location: Unspecified
(47.6578°N, 23.5640°E)
Time: 22:07:16
(UTC+02:00)

ISS - Pass Details

Date: 30 November 2017
Orbit: 402 x 407 km, 51.6° (Epoch: 13 December)

Event Time Altitude Azimuth Distance (km) Brightness Sun altitude
Rises 17:30:14 0° 209° (SSW) 2,317 0.9 -8.8°
Reaches altitude 10° 17:32:35 10° 193° (SSW) 1,461 -0.5 -9.2°
Maximum altitude 17:35:13 22° 140° (SE) 934 -2.2 -9.6°
Enters shadow 17:37:21 13° 92° (E) 1,312 -1.8 -9.9°
